星链-36796(STARLINK-36796)

导读

STARLINK-36796是美国 SpaceX 星链计划的卫星,于2026年2月11日发射。星链计划旨在搭建全球卫星互联网星座,为全球偏远地区等提供低时延、高速的网络接入服务。该卫星入轨后,将和其他星链卫星协同,进一步扩展星链星座的全球覆盖范围与服务能力,推进星链网络组网建设。

基本信息
目录编号:
67722
目录名称:
STARLINK-36796
国际标识:
2026-026B
轨道中心:
EARTH
卫星名称:
星链-36796
卫星全名:
星链-36796(STARLINK-36796)
卫星状态:
在轨 (已飞行206 天)
发射日期:
2026-02-11 UTC
国别 :
美国 (US)
星等 :
--
轨道信息
数据来源 国际轨道数据 AOE轨道数据
星历时间 2026-09-05T09:59:55+0800
11小时前
查看轨道信息
2026-09-04T23:00:00+0800
22小时前
查看轨道信息
半长轴 6843.675km 6843.722km
偏心率 0.0000704 0.0000726
轨道倾角 97.286° 97.286°
近地点辐角 310.498° 125.841°
升交点赤经 300.068° 299.617°
平近点角 49.620° 226.078°
近地点 465.056km 465.088km
远地点 466.02km 466.082km
周期 93.906分钟 93.907分钟
每日圈数 15.334469 15.334311
详细信息
固有亮度:
5
最大亮度:
2.5
卫星平台:
Starlink V1.0
覆盖范围:
全球
运营商:
太空探索技术公司
运营商所在国:
美国
制造商(研发单位):
太空探索技术公司
制造商所在国:
美国
使用方式:
暂无
卫星简介
Starlink 计划是 SpaceX 推出的全球卫星互联网项目,通过发射低轨道卫星,为全球尤其是偏远地区提供高速、低延迟的互联网服务。自 2019 年起,Starlink 已部署数千颗卫星,旨在缩小全球数字鸿沟,推动互联网普及。该项目还为军事、航空等行业提供通信支持,带来广泛经济效益。
2D轨道图
3D轨道图
轨道高度分析图
轨道倾角分析图
轨道综合分析图
查看轨道综合分析图
交会数据列表
事件ID 空间交会对象 最接近时刻(TCA) 交会距离 交会风险概率(CRP) 交会风险指数(CRI) 操作
CDM_260906-143604-775306-772222
2026-09-06T
14:36:20+0000
2.412 km
极远距离
1.817401E-6 低风险 0.4
CDM_260906-223005-401306-772221
2026-09-06T
22:30:05+0000
2.456 km
极远距离
1.796129E-6 低风险 0.4
CDM_260907-154406-542006-772222
2026-09-07T
15:44:57+0000
2.541 km
极远距离
1.694557E-6 低风险 0.4
CDM_260906-102304-353406-772221
2026-09-06T
10:23:20+0000
2.613 km
极远距离
1.605114E-6 低风险 0.39
CDM_260907-152405-304906-772221
2026-09-07T
15:24:32+0000
2.885 km
极远距离
1.323159E-6 低风险 0.37
CDM_260906-185606-772206-925321
2026-09-06T
18:56:44+0000
2.834 km
极远距离
1.200122E-6 低风险 0.37